TIANMU-1 08

Last updated on Mon Jun 22 2026 00:02:46 GMT+0000 (Coordinated Universal Time)

1 57400U 23101B 26172.51458675 .00005094 00000+0 17870-3 0 9995 2 57400 97.2578 222.8538 0005687 104.7184 255.4688 15.29854432162300
UTC large
Height (km)
Speed (km/s)
/
Latitude / Longitude
Inclination (degrees)
Orbital Period (minutes)
Azimuth
Elevation
Range (km)
Doppler Factor

Next 0 passes for location: London (51.5072 / 0.1276)

No passes found over London.
TIANMU-1 08